Weather in Kyrlyk

Russia / Altai Republic     50°48′21″N   84°56′51″E
temp.,
°C
wind,
m/s
gust,
m/s
humid.,
%
clouds,
%
prec.,
mm/h
press.,
hPa
HPBL,
m
24 june, thu
thu2401:00+3sse3484100 0.1 101294
04:00+4s4981100 0.1 1008459
07:00+4s41295100 2.1 1007687
10:00+5s4995100 1.3 1007575
13:00+7s51184100 3.8 10061066
16:00+6sse598692 1.1 1007700
19:00+7s498191 1.3 1007737
22:00+3sse3496100 0.0 100876
25 june, fri
fri2501:00+5s2494100 0.1 1006229
04:00+3s489182 0.3 1007317
07:00+4ssw489035 0.3 1010687
10:00+8sw676220 0.1 10091102
13:00+10sw575899 0.1 10091594
16:00+9wsw546597 0.2 10121249
19:00+8sw2366100 0.4 1013850
22:00+4sw118782 0.2 101510
26 june, sat
sat2601:00+1s229261 0.3 101612
04:00+1s229664 0.0 101627
07:00+3s1289100 0.0 1015122
10:00+9ssw126999 0.0 1012759
13:00+9ssw347897 1.2 1012921
16:00+10sw457467 1.2 10121238
19:00+8nnw228058 1.5 1014642
22:00+5nne118754 0.0 101718
27 june, sun
sun2701:00+2ese11937 0.0 101811
04:00+1ese11925 0.0 101910
07:00+4sse11855 0.0 101884
10:00+10nnw116311 0.0 1016956
13:00+13nnw225345 0.0 10141471
16:00+14nw235190 0.1 10141780
19:00+13nnw125971 0.1 1014920
22:00+8s2275100 0.0 101512
28 june, mon
mon2801:00+7ssw2279100 0.0 101421
04:00+7sse2390100 0.0 101452
07:00+8s2386100 0.0 1013165
10:00+12s4664100 0.0 1011999
13:00+13ssw6962100 0.1 10101355
16:00+14ssw696095 0.0 10091226
19:00+11s3881100 0.3 1009716
22:00+9s4696100 3.6 1009214